SCP
-0 -0 -0 -0 -0 -0 -0 0 0 0 0 0 0 0 0 0 0 0 0 0 0 0 0 0 0 0 0 0 0 0 0 0 0 0 0 0 0 0 0 0 0 0 0 0 0
-0 -0 -0 -0 -0 -0 -0 0 0 0 0 0 0 0 0 0 0 0 0 0 0 0 0 0 0 0 0 0 0 0 0 0 0 0 0 0 0 0 0 0 0 0 0 0 0
-0 -0 -0 -0 -0 -0 0 0 0 0 0 0 0 0 0 0 -0 0 0 0 0 0 0 0 0 0 0 0 0 0 0 0 0 0 0 0 0 0 0 0 0 0 0 0 0
-0 -0 -0 -0 -0 -0 -0 0 0 0 0 0 0 -0 0 -0 0 0 0 0 0 0 0 0 0 0 0 0 0 0 0 0 0 0 0 0 0 0 0 0 0 0 0 0 0
-0 -0 -0 -0 -0 -0 -0 -0 0 0 0 -0 -0 -0 -0 -0 0 0 0 0 -0 0 0 0 0 0 0 0 0 0 0 0 0 0 0 0 0 0 0 0 0 0 0 0 0
-0 -0 -0 -0 -0 -0 -0 -0 -0 -0 -0 -0 -0 -0 -0 0 0 0 0 0 0 0 0 0 0 0 0 0 0 0 0 0 0 0 0 0 0 0 0 0 0 0 0 0 0
-0 -0 -0 -0 -0 -0 -0 0 -0 -0 -0 -0 0 -0 -0 0 0 0 0 0 0 0 0 0 0 0 0 0 0 0 0 0 0 0 0 0 0 0 0 0 0 0 0 0 0
0 0 0 0 0 -0 -0 0 0 -0 0 0 0 0 0 0 0 -0 0 0 0 0 0 0 0 0 0 0 0 0 0 0 0 0 0 0 0 0 0 0 0 0 0 0 0
-0 -0 -0 0 0 0 0 0 -0 0 0 0 0 0 0 0 0 0 0 0 0 0 0 0 -0 0 0 0 0 0 0 0 0 0 0 0 0 0 0 0 0 0 0 0 0
-0 -0 -0 0 0 0 0 -0 0 0 0 0 0 0 0 0 0 0 0 0 -0 0 0 0 0 0 0 0 0 0 0 0 0 0 0 0 0 0 0 0 0 0 0 0 0
0 0 -0 -0 -0 0 -0 0 -0 0 0 0 0 0 0 0 -0 -0 -0 -0 -0 -0 -0 0 0 0 0 0 0 0 0 0 0 0 0 0 0 0 0 0 0 0 0 0 0
0 0 -0 -0 -0 -0 -0 0 0 0 0 0 0 -0 -0 0 0 -0 0 -0 0 0 0 0 0 -0 0 0 0 0 0 0 0 0 0 0 0 0 0 0 0 0 0 0 0
0 0 0 0 0 0 0 0 0 0 0 0 0 0 0 0 -0 -0 0 0 -0 0 0 0 -0 0 0 0 0 0 0 0 0 0 0 0 0 0 0 0 0 0 0 0 0
0 0 0 0 0 0 0 0 0 0 0 0 0 0 0 0 -0 0 0 0 0 0 0 0 0 0 0 0 0 0 0 0 0 0 0 0 0 0 0 0 0 0 0 0 0
0 0 0 0 0 0 0 0 0 0 -0 0 0 0 0 0 0 0 0 0 0 0 0 -0 0 0 0 0 0 0 0 0 0 0 0 0 0 0 0 0 0 0 0 0 0
0 0 0 0 0 0 0 0 0 0 0 0 0 0 0 0 0 0 0 0 0 0 0 0 0 0 0 0 0 0 0 0 0 0 0 0 0 0 0 0 0 0 0 0 0
0 0 0 0 0 0 0 0 0 0 0 0 0 0 0 0 0 0 0 0 0 -0 0 0 0 0 -0 -0 0 0 0 0 0 0 0 0 0 0 0 0 0 0 0 0 0
0 0 0 0 0 0 0 0 0 0 0 0 0 0 0 0 0 0 0 0 0 0 0 0 0 0 -0 0 -0 0 0 0 0 0 0 0 0 0 0 -0 0 0 0 0 0
0 0 0 0 0 0 0 0 0 0 0 0 0 0 0 0 0 0 0 0 0 0 0 0 0 0 -0 0 -0 -0 0 0 0 0 0 0 0 0 0 0 -0 -0 0 0 0
0 0 0 0 0 0 0 0 0 0 0 0 0 0 0 0 0 0 0 0 0 0 0 -0 0 0 0 0 -0 0 0 0 0 0 0 0 0 0 0 0 0 0 0 0 0
0 0 0 0 0 0 0 0 0 0 0 0 0 0 0 0 0 0 0 0 0 0 -0 0 0 0 0 0 -0 -0 0 0 0 0 0 0 0 0 0 0 0 0 0 0 0
0 0 0 0 0 0 0 0 0 0 0 0 0 0 0 0 0 0 0 0 0 0 -0 0 0 0 -0 0 0 0 0 0 0 0 0 0 0 0 0 0 0 0 0 0 0
0 0 0 0 0 0 0 0 0 0 0 0 0 0 0 0 0 0 0 -0 0 0 0 0 0 0 0 0 0 0 0 0 0 0 0 0 0 0 0 0 0 0 0 0 0
0 0 0 0 0 0 0 0 0 0 0 0 0 0 0 0 0 0 0 0 0 -0 0 0 0 0 0 0 0 0 0 0 0 0 0 0 0 -0 0 0 0 0 0 0 0
0 0 0 0 0 0 0 0 0 0 0 0 0 0 0 0 0 0 0 0 -0 -0 -0 -0 -0 -0 -0 -0 0 0 0 -0 -0 0 0 0 0 0 0 0 0 0 0 0 0
0 0 0 0 0 0 0 0 0 0 0 0 0 0 0 0 0 0 0 0 0 0 0 0 -0 0 -0 -0 -0 -0 -0 -0 0 0 0 0 0 0 0 0 0 0 0 0 0
0 0 0 0 0 0 0 0 0 -0 0 0 0 0 -0 -0 0 0 0 0 -0 0 -0 0 0 -0 -0 -0 -0 -0 -0 -0 -0 0 -0 0 0 0 0 0 0 0 0 0 0
Wind_Speed_500mb
29 29 28 27 26 27 27 26 27 26 26 25 25 26 26 27 26 23 12 18 14 20 29 29 20 19 26 38 40 32 26 34 42 35 30 23 32 30 18 20 15 3 5 8 14
30 30 29 29 30 30 27 25 26 27 28 29 28 27 28 29 25 8 4 8 6 14 10 23 29 25 36 42 35 38 32 51 35 25 24 41 35 34 16 30 27 18 17 14 15
31 30 30 30 33 32 28 25 25 25 29 32 33 32 30 29 4 4 7 3 13 16 11 11 26 35 46 42 60 53 51 43 47 33 36 45 43 40 33 34 34 26 29 12 5
31 31 31 30 33 30 26 23 24 25 28 32 33 32 34 17 8 6 12 23 29 29 13 11 16 41 42 54 56 52 60 68 57 41 35 45 48 54 56 52 46 19 28 28 26
33 33 32 30 30 29 27 22 25 30 32 30 25 28 26 10 5 14 24 29 22 17 15 17 25 34 51 43 60 58 61 58 58 55 48 44 57 50 58 61 54 51 49 46 43
34 33 31 29 28 28 23 18 23 33 32 30 27 29 14 3 17 23 21 15 18 17 13 16 21 26 42 56 54 66 64 72 63 48 54 53 58 52 56 61 57 56 58 56 46
39 38 35 32 30 29 25 21 28 34 34 29 25 25 9 6 19 23 23 19 21 16 17 19 24 35 16 35 61 67 57 51 49 70 58 38 55 73 70 68 60 53 53 54 51
38 37 35 32 28 27 24 25 29 33 29 16 18 9 6 19 27 28 24 25 22 19 20 18 19 37 49 43 50 40 50 50 65 48 65 50 60 68 66 67 73 67 62 61 56
41 38 35 32 28 28 25 31 30 22 13 11 7 4 3 19 24 28 22 24 26 27 26 18 18 35 37 41 39 46 49 62 65 63 50 49 70 72 73 54 57 58 59 62 55
46 44 40 34 28 24 28 30 22 15 7 11 5 8 3 20 30 34 19 16 18 21 25 21 22 28 32 37 49 54 60 59 61 55 52 52 67 52 56 48 64 65 63 63 60
48 48 42 32 26 18 25 22 13 6 11 19 17 11 15 23 34 19 20 15 16 18 21 31 30 35 42 44 60 55 61 62 56 51 52 64 66 63 61 64 51 51 51 51 52
51 50 43 32 21 11 22 10 9 13 18 21 24 23 23 16 22 24 9 15 15 28 29 24 40 43 44 45 54 57 63 65 41 42 50 53 65 58 59 62 73 70 68 66 64
52 50 42 27 14 5 8 9 9 18 14 9 7 13 9 13 26 24 15 23 29 40 38 41 50 40 33 36 45 53 55 56 55 37 34 44 60 62 58 63 67 59 62 61 60
51 44 32 12 8 5 3 14 20 5 9 10 8 6 14 27 26 24 12 22 27 34 31 30 33 42 41 44 42 55 56 52 54 35 36 41 43 52 52 53 54 64 60 62 58
49 30 17 11 4 5 6 16 14 5 8 4 7 6 23 13 21 7 15 18 31 32 21 38 33 28 36 46 49 50 50 46 54 50 41 44 28 33 33 39 39 36 49 54 54
47 14 6 9 7 9 17 16 8 11 1 4 5 18 22 18 19 14 29 23 34 28 33 44 45 25 32 41 36 34 47 36 39 42 42 57 41 28 35 43 36 35 42 42 45
44 4 3 6 5 17 19 4 9 10 5 4 13 23 29 15 18 20 31 20 8 16 27 24 37 36 29 44 27 36 32 22 28 31 38 56 47 36 14 16 23 23 9 14 20
38 7 4 4 12 18 8 9 7 9 11 15 19 32 14 18 16 29 27 24 3 14 20 18 14 26 36 41 29 39 36 26 31 35 32 37 27 34 39 50 33 19 4 3 12
27 8 3 8 13 18 14 7 11 12 10 18 30 12 4 12 18 25 27 19 6 14 16 13 7 9 22 35 45 37 37 40 50 37 28 36 40 42 16 20 20 17 6 12 20
19 6 6 13 19 10 10 8 7 6 15 15 17 6 22 29 24 25 21 2 10 18 25 9 20 14 11 31 37 40 28 34 17 36 34 28 37 24 44 47 38 27 9 16 26
12 7 5 10 13 8 5 6 12 9 10 11 21 28 28 26 20 26 14 23 4 26 28 25 12 6 15 12 9 26 27 22 30 30 22 27 30 29 27 24 23 21 14 23 32
13 4 9 16 7 3 8 13 9 10 10 17 17 18 18 20 25 27 23 15 33 29 33 13 14 21 24 14 12 15 19 25 20 34 28 20 11 10 31 29 18 14 19 30 35
20 7 11 10 4 8 9 13 10 14 13 9 12 14 19 24 13 15 24 28 33 29 10 19 8 18 6 15 17 17 19 29 25 18 30 30 8 22 23 14 7 20 27 33 38
12 5 4 9 5 12 16 4 10 10 21 12 23 26 22 25 24 21 32 21 24 30 33 20 24 28 25 28 15 16 21 18 24 23 29 33 36 33 29 19 24 34 36 42 44
12 3 7 6 1 16 17 11 16 11 9 24 12 15 22 15 38 40 27 36 41 43 41 12 22 31 32 31 29 32 33 34 37 37 34 36 36 37 38 36 35 48 49 55 46
11 10 11 15 13 15 4 5 12 8 19 20 24 26 29 33 35 48 39 33 14 22 18 13 11 21 29 27 30 37 41 44 42 41 37 42 48 45 49 57 53 56 50 43 42
10 10 6 13 8 7 5 12 24 32 23 19 25 31 34 35 42 59 61 56 37 21 20 11 10 10 24 10 21 28 38 38 37 40 34 39 36 34 39 40 40 55 47 42 45
Wind_Direction_500mb
13 10 8 4 359 354 347 341 337 334 333 334 335 338 337 327 326 320 288 245 259 261 235 239 243 218 209 220 222 224 240 246 239 226 246 259 254 244 248 244 216 277 159 85 183
12 10 7 4 359 353 348 344 339 338 337 337 342 351 346 337 344 35 77 128 74 355 303 246 232 215 215 219 215 217 227 242 249 252 230 239 242 236 236 225 232 218 172 91 102
8 5 2 0 356 352 348 345 343 343 340 338 342 345 344 345 340 151 53 312 314 344 307 291 231 227 225 226 219 223 241 243 239 242 247 250 246 238 236 239 229 222 193 227 244
1 357 355 356 354 354 349 341 338 339 338 339 340 340 343 8 343 191 297 304 306 305 312 277 235 225 229 230 228 238 246 246 250 233 243 249 256 252 246 244 241 233 226 262 262
353 349 345 345 350 350 346 343 340 338 340 346 341 340 351 304 37 303 317 325 335 337 273 263 250 232 238 238 236 236 241 250 245 246 244 256 252 253 252 246 248 248 256 260 268
350 343 337 335 340 347 348 344 337 332 339 344 337 342 354 268 0 344 347 342 339 341 311 264 250 255 271 253 246 239 245 246 250 247 242 247 254 248 244 248 252 251 252 258 259
354 347 340 334 336 342 342 341 334 329 332 335 338 346 325 354 13 2 335 314 302 297 300 293 265 246 265 258 252 254 259 261 241 235 244 247 260 246 245 252 251 248 249 254 258
355 350 345 336 333 335 333 331 328 320 320 327 341 352 281 357 356 357 334 326 303 292 278 278 281 252 248 263 281 257 243 245 240 231 233 223 256 254 230 235 247 246 248 249 253
349 348 343 336 335 337 336 333 326 320 314 329 24 323 135 345 342 335 329 322 319 298 272 270 269 251 241 237 251 241 239 232 240 228 224 213 242 250 252 237 233 247 247 248 251
345 344 342 336 337 343 348 344 343 337 2 359 323 257 230 332 329 323 319 303 292 306 271 256 254 252 232 231 233 231 230 237 243 226 228 222 243 251 244 237 243 243 249 251 254
340 340 337 335 334 342 356 342 322 229 296 282 308 278 307 308 312 310 301 284 264 259 266 256 248 255 261 252 251 260 265 250 245 248 228 222 239 244 245 248 244 244 241 242 248
337 336 333 325 323 321 6 22 21 320 297 288 264 254 280 283 302 324 300 286 280 289 295 258 249 254 271 274 257 245 252 256 261 268 242 234 237 243 246 246 248 250 252 256 260
338 336 333 325 318 298 4 23 355 339 273 317 221 261 296 284 291 298 288 299 289 291 281 268 263 269 266 259 254 253 250 247 251 265 242 248 247 245 240 243 251 255 254 260 264
341 338 343 359 70 355 12 327 335 330 271 141 190 202 288 307 259 303 268 302 290 295 298 276 280 261 255 254 251 249 245 244 252 236 226 216 248 235 232 242 244 247 252 255 258
344 341 7 67 89 21 287 318 315 165 278 98 165 296 312 288 301 149 301 294 293 307 278 268 287 253 253 254 248 254 240 241 230 245 249 244 239 251 252 244 241 242 252 254 257
345 337 28 39 22 345 340 327 147 230 270 163 259 322 317 313 312 296 322 258 297 299 272 269 264 259 267 302 239 258 225 238 243 230 233 236 246 248 245 245 245 238 250 258 259
344 291 346 25 320 345 353 162 248 272 98 42 324 323 315 311 318 330 325 317 358 334 352 322 253 226 250 278 238 267 210 205 216 217 221 223 231 238 210 7 259 244 247 245 254
344 219 244 355 348 341 343 232 279 59 334 339 312 307 295 357 335 332 316 308 155 314 300 337 311 273 200 244 266 206 228 226 217 210 217 229 223 226 239 250 263 265 161 245 336
347 199 232 320 339 339 275 238 347 0 350 321 310 295 320 305 327 318 320 319 323 22 339 308 308 282 273 219 254 242 234 236 246 263 247 209 214 257 221 211 207 168 153 17 2
1 215 241 308 333 321 267 304 301 313 309 305 308 315 322 323 321 329 319 96 323 323 338 291 295 271 267 305 249 256 256 232 225 232 223 219 210 223 210 224 228 236 77 8 4
20 242 324 335 341 281 277 330 302 314 310 303 309 296 299 314 306 301 284 293 273 322 318 307 279 277 238 239 280 221 237 250 253 227 242 225 212 203 146 120 112 102 60 16 13
1 256 320 354 262 311 302 341 327 285 277 288 282 289 295 306 298 287 277 274 322 318 307 359 295 290 285 171 182 260 280 262 234 224 247 293 98 137 122 126 114 71 24 9 2
339 299 336 25 354 325 333 301 269 291 308 295 284 292 299 298 298 283 280 301 300 301 327 359 283 311 252 178 193 231 247 277 277 304 256 231 174 139 152 167 44 0 350 346 346
340 326 6 52 49 333 341 308 297 287 282 265 276 288 278 287 281 271 286 289 285 292 306 298 278 266 278 305 313 291 280 243 262 268 242 247 256 183 202 293 316 318 317 321 327
1 21 1 319 313 334 303 280 300 318 286 306 280 266 296 288 304 286 299 311 294 287 269 255 267 267 267 276 279 276 272 264 252 254 264 268 264 266 278 293 306 299 298 301 306
345 347 324 287 295 325 242 291 301 299 312 291 277 298 308 291 286 290 300 292 270 292 288 236 262 280 280 268 263 271 262 252 247 247 253 258 262 269 274 277 279 284 289 299 306
351 308 281 302 301 301 322 332 321 322 301 261 293 294 291 298 306 290 283 275 259 259 262 279 277 287 266 318 300 275 254 252 253 254 258 259 266 275 277 277 272 277 284 292 294
Wind_Speed_850mb
29 29 28 27 26 27 27 26 27 26 26 25 25 26 26 27 26 23 12 18 14 20 29 29 20 19 26 38 40 32 26 34 42 35 30 23 32 30 18 20 15 3 5 8 14
30 30 29 29 30 30 27 25 26 27 28 29 28 27 28 29 25 8 4 8 6 14 10 23 29 25 36 42 35 38 32 51 35 25 24 41 35 34 16 30 27 18 17 14 15
31 30 30 30 33 32 28 25 25 25 29 32 33 32 30 29 4 4 7 3 13 16 11 11 26 35 46 42 60 53 51 43 47 33 36 45 43 40 33 34 34 26 29 12 5
31 31 31 30 33 30 26 23 24 25 28 32 33 32 34 17 8 6 12 23 29 29 13 11 16 41 42 54 56 52 60 68 57 41 35 45 48 54 56 52 46 19 28 28 26
33 33 32 30 30 29 27 22 25 30 32 30 25 28 26 10 5 14 24 29 22 17 15 17 25 34 51 43 60 58 61 58 58 55 48 44 57 50 58 61 54 51 49 46 43
34 33 31 29 28 28 23 18 23 33 32 30 27 29 14 3 17 23 21 15 18 17 13 16 21 26 42 56 54 66 64 72 63 48 54 53 58 52 56 61 57 56 58 56 46
39 38 35 32 30 29 25 21 28 34 34 29 25 25 9 6 19 23 23 19 21 16 17 19 24 35 16 35 61 67 57 51 49 70 58 38 55 73 70 68 60 53 53 54 51
38 37 35 32 28 27 24 25 29 33 29 16 18 9 6 19 27 28 24 25 22 19 20 18 19 37 49 43 50 40 50 50 65 48 65 50 60 68 66 67 73 67 62 61 56
41 38 35 32 28 28 25 31 30 22 13 11 7 4 3 19 24 28 22 24 26 27 26 18 18 35 37 41 39 46 49 62 65 63 50 49 70 72 73 54 57 58 59 62 55
46 44 40 34 28 24 28 30 22 15 7 11 5 8 3 20 30 34 19 16 18 21 25 21 22 28 32 37 49 54 60 59 61 55 52 52 67 52 56 48 64 65 63 63 60
48 48 42 32 26 18 25 22 13 6 11 19 17 11 15 23 34 19 20 15 16 18 21 31 30 35 42 44 60 55 61 62 56 51 52 64 66 63 61 64 51 51 51 51 52
51 50 43 32 21 11 22 10 9 13 18 21 24 23 23 16 22 24 9 15 15 28 29 24 40 43 44 45 54 57 63 65 41 42 50 53 65 58 59 62 73 70 68 66 64
52 50 42 27 14 5 8 9 9 18 14 9 7 13 9 13 26 24 15 23 29 40 38 41 50 40 33 36 45 53 55 56 55 37 34 44 60 62 58 63 67 59 62 61 60
51 44 32 12 8 5 3 14 20 5 9 10 8 6 14 27 26 24 12 22 27 34 31 30 33 42 41 44 42 55 56 52 54 35 36 41 43 52 52 53 54 64 60 62 58
49 30 17 11 4 5 6 16 14 5 8 4 7 6 23 13 21 7 15 18 31 32 21 38 33 28 36 46 49 50 50 46 54 50 41 44 28 33 33 39 39 36 49 54 54
47 14 6 9 7 9 17 16 8 11 1 4 5 18 22 18 19 14 29 23 34 28 33 44 45 25 32 41 36 34 47 36 39 42 42 57 41 28 35 43 36 35 42 42 45
44 4 3 6 5 17 19 4 9 10 5 4 13 23 29 15 18 20 31 20 8 16 27 24 37 36 29 44 27 36 32 22 28 31 38 56 47 36 14 16 23 23 9 14 20
38 7 4 4 12 18 8 9 7 9 11 15 19 32 14 18 16 29 27 24 3 14 20 18 14 26 36 41 29 39 36 26 31 35 32 37 27 34 39 50 33 19 4 3 12
27 8 3 8 13 18 14 7 11 12 10 18 30 12 4 12 18 25 27 19 6 14 16 13 7 9 22 35 45 37 37 40 50 37 28 36 40 42 16 20 20 17 6 12 20
19 6 6 13 19 10 10 8 7 6 15 15 17 6 22 29 24 25 21 2 10 18 25 9 20 14 11 31 37 40 28 34 17 36 34 28 37 24 44 47 38 27 9 16 26
12 7 5 10 13 8 5 6 12 9 10 11 21 28 28 26 20 26 14 23 4 26 28 25 12 6 15 12 9 26 27 22 30 30 22 27 30 29 27 24 23 21 14 23 32
13 4 9 16 7 3 8 13 9 10 10 17 17 18 18 20 25 27 23 15 33 29 33 13 14 21 24 14 12 15 19 25 20 34 28 20 11 10 31 29 18 14 19 30 35
20 7 11 10 4 8 9 13 10 14 13 9 12 14 19 24 13 15 24 28 33 29 10 19 8 18 6 15 17 17 19 29 25 18 30 30 8 22 23 14 7 20 27 33 38
12 5 4 9 5 12 16 4 10 10 21 12 23 26 22 25 24 21 32 21 24 30 33 20 24 28 25 28 15 16 21 18 24 23 29 33 36 33 29 19 24 34 36 42 44
12 3 7 6 1 16 17 11 16 11 9 24 12 15 22 15 38 40 27 36 41 43 41 12 22 31 32 31 29 32 33 34 37 37 34 36 36 37 38 36 35 48 49 55 46
11 10 11 15 13 15 4 5 12 8 19 20 24 26 29 33 35 48 39 33 14 22 18 13 11 21 29 27 30 37 41 44 42 41 37 42 48 45 49 57 53 56 50 43 42
10 10 6 13 8 7 5 12 24 32 23 19 25 31 34 35 42 59 61 56 37 21 20 11 10 10 24 10 21 28 38 38 37 40 34 39 36 34 39 40 40 55 47 42 45
Wind_Direction_850mb
13 10 8 4 359 354 347 341 337 334 333 334 335 338 337 327 326 320 288 245 259 261 235 239 243 218 209 220 222 224 240 246 239 226 246 259 254 244 248 244 216 277 159 85 183
12 10 7 4 359 353 348 344 339 338 337 337 342 351 346 337 344 35 77 128 74 355 303 246 232 215 215 219 215 217 227 242 249 252 230 239 242 236 236 225 232 218 172 91 102
8 5 2 0 356 352 348 345 343 343 340 338 342 345 344 345 340 151 53 312 314 344 307 291 231 227 225 226 219 223 241 243 239 242 247 250 246 238 236 239 229 222 193 227 244
1 357 355 356 354 354 349 341 338 339 338 339 340 340 343 8 343 191 297 304 306 305 312 277 235 225 229 230 228 238 246 246 250 233 243 249 256 252 246 244 241 233 226 262 262
353 349 345 345 350 350 346 343 340 338 340 346 341 340 351 304 37 303 317 325 335 337 273 263 250 232 238 238 236 236 241 250 245 246 244 256 252 253 252 246 248 248 256 260 268
350 343 337 335 340 347 348 344 337 332 339 344 337 342 354 268 0 344 347 342 339 341 311 264 250 255 271 253 246 239 245 246 250 247 242 247 254 248 244 248 252 251 252 258 259
354 347 340 334 336 342 342 341 334 329 332 335 338 346 325 354 13 2 335 314 302 297 300 293 265 246 265 258 252 254 259 261 241 235 244 247 260 246 245 252 251 248 249 254 258
355 350 345 336 333 335 333 331 328 320 320 327 341 352 281 357 356 357 334 326 303 292 278 278 281 252 248 263 281 257 243 245 240 231 233 223 256 254 230 235 247 246 248 249 253
349 348 343 336 335 337 336 333 326 320 314 329 24 323 135 345 342 335 329 322 319 298 272 270 269 251 241 237 251 241 239 232 240 228 224 213 242 250 252 237 233 247 247 248 251
345 344 342 336 337 343 348 344 343 337 2 359 323 257 230 332 329 323 319 303 292 306 271 256 254 252 232 231 233 231 230 237 243 226 228 222 243 251 244 237 243 243 249 251 254
340 340 337 335 334 342 356 342 322 229 296 282 308 278 307 308 312 310 301 284 264 259 266 256 248 255 261 252 251 260 265 250 245 248 228 222 239 244 245 248 244 244 241 242 248
337 336 333 325 323 321 6 22 21 320 297 288 264 254 280 283 302 324 300 286 280 289 295 258 249 254 271 274 257 245 252 256 261 268 242 234 237 243 246 246 248 250 252 256 260
338 336 333 325 318 298 4 23 355 339 273 317 221 261 296 284 291 298 288 299 289 291 281 268 263 269 266 259 254 253 250 247 251 265 242 248 247 245 240 243 251 255 254 260 264
341 338 343 359 70 355 12 327 335 330 271 141 190 202 288 307 259 303 268 302 290 295 298 276 280 261 255 254 251 249 245 244 252 236 226 216 248 235 232 242 244 247 252 255 258
344 341 7 67 89 21 287 318 315 165 278 98 165 296 312 288 301 149 301 294 293 307 278 268 287 253 253 254 248 254 240 241 230 245 249 244 239 251 252 244 241 242 252 254 257
345 337 28 39 22 345 340 327 147 230 270 163 259 322 317 313 312 296 322 258 297 299 272 269 264 259 267 302 239 258 225 238 243 230 233 236 246 248 245 245 245 238 250 258 259
344 291 346 25 320 345 353 162 248 272 98 42 324 323 315 311 318 330 325 317 358 334 352 322 253 226 250 278 238 267 210 205 216 217 221 223 231 238 210 7 259 244 247 245 254
344 219 244 355 348 341 343 232 279 59 334 339 312 307 295 357 335 332 316 308 155 314 300 337 311 273 200 244 266 206 228 226 217 210 217 229 223 226 239 250 263 265 161 245 336
347 199 232 320 339 339 275 238 347 0 350 321 310 295 320 305 327 318 320 319 323 22 339 308 308 282 273 219 254 242 234 236 246 263 247 209 214 257 221 211 207 168 153 17 2
1 215 241 308 333 321 267 304 301 313 309 305 308 315 322 323 321 329 319 96 323 323 338 291 295 271 267 305 249 256 256 232 225 232 223 219 210 223 210 224 228 236 77 8 4
20 242 324 335 341 281 277 330 302 314 310 303 309 296 299 314 306 301 284 293 273 322 318 307 279 277 238 239 280 221 237 250 253 227 242 225 212 203 146 120 112 102 60 16 13
1 256 320 354 262 311 302 341 327 285 277 288 282 289 295 306 298 287 277 274 322 318 307 359 295 290 285 171 182 260 280 262 234 224 247 293 98 137 122 126 114 71 24 9 2
339 299 336 25 354 325 333 301 269 291 308 295 284 292 299 298 298 283 280 301 300 301 327 359 283 311 252 178 193 231 247 277 277 304 256 231 174 139 152 167 44 0 350 346 346
340 326 6 52 49 333 341 308 297 287 282 265 276 288 278 287 281 271 286 289 285 292 306 298 278 266 278 305 313 291 280 243 262 268 242 247 256 183 202 293 316 318 317 321 327
1 21 1 319 313 334 303 280 300 318 286 306 280 266 296 288 304 286 299 311 294 287 269 255 267 267 267 276 279 276 272 264 252 254 264 268 264 266 278 293 306 299 298 301 306
345 347 324 287 295 325 242 291 301 299 312 291 277 298 308 291 286 290 300 292 270 292 288 236 262 280 280 268 263 271 262 252 247 247 253 258 262 269 274 277 279 284 289 299 306
351 308 281 302 301 301 322 332 321 322 301 261 293 294 291 298 306 290 283 275 259 259 262 279 277 287 266 318 300 275 254 252 253 254 258 259 266 275 277 277 272 277 284 292 294